GORIZONT 2 [-]

Last updated on Oct. 25, 2020, 5:56 a.m. UTC

1 11440U 79062A   20298.13188019 -.00000036  00000-0  00000-0 0  9996
2 11440  10.6362 308.9904 0003772 295.9507 261.0965  1.00299744117340
UTC
Height (km)
Latitude
Longitude
Inclination
Orbital Period
UTC large
Height (km)
Speed (km/s)
/
Latitude / Longitude
Inclination (degrees)
Orbital Period (minutes)
Azimuth
Elevation
Range (km)
Doppler Factor
iOS Compass Heading
iOS Angle

Next 30 passes for location: Hong Kong

Rise time Rise Azimuth (degrees) Set time Set Azimuth (degrees) Duration Max altitude (degrees)

No matching passes for this satellites